When you browse on this site, cookies collect data to enhance your experience and personalize the content and advertising you see.
Visit our Privacy Policy to learn more. By continuing to use the site, you agree to this use of cookies and data.
  • In Portugal
  • List of Countries
  • For 7 days
  • Water Temperature
  • Weather Map
  • Weather Widgets
  • user-avatar
    Login

    Hourly Weather Ondjiwa

    Today, 27 May, Wednesday

    Time Temperature Precipitation Wind Pressure Humidity
    00:00 +19°C° 0 mm 1 mps 667 mmHg 42%
    01:00 +18°C° 0 mm 1 mps 667 mmHg 45%
    02:00 +16°C° 0 mm 1 mps 667 mmHg 48%
    03:00 +15°C° 0 mm 1 mps 667 mmHg 50%
    04:00 +14°C° 0 mm 1 mps 667 mmHg 53%
    05:00 +15°C° 0 mm 1 mps 667 mmHg 53%
    06:00 +15°C° 0 mm 1 mps 667 mmHg 53%
    07:00 +16°C° 0 mm 1 mps 668 mmHg 54%
    08:00 +19°C° 0 mm 1 mps 669 mmHg 47%
    09:00 +21°C° 0 mm 2 mps 670 mmHg 39%
    10:00 +25°C° 0 mm 2 mps 671 mmHg 32%
    11:00 +27°C° 0 mm 2 mps 671 mmHg 29%
    12:00 +29°C° 0 mm 2 mps 670 mmHg 26%
    13:00 +31°C° 0 mm 1 mps 670 mmHg 23%
    14:00 +30°C° 0 mm 1 mps 669 mmHg 22%
    15:00 +30°C° 0 mm 1 mps 669 mmHg 21%
    16:00 +30°C° 0 mm 1 mps 668 mmHg 20%
    17:00 +28°C° 0 mm 1 mps 668 mmHg 24%
    18:00 +25°C° 0 mm 1 mps 668 mmHg 28%
    19:00 +22°C° 0 mm 1 mps 668 mmHg 32%
    20:00 +22°C° 0 mm 1 mps 668 mmHg 33%
    21:00 +20°C° 0 mm 2 mps 668 mmHg 33%
    22:00 +19°C° 0 mm 2 mps 668 mmHg 34%
    23:00 +18°C° 0 mm 2 mps 668 mmHg 35%

    Tomorrow, 28 May, Thursday

    Time Temperature Precipitation Wind Pressure Humidity
    00:00 +17°C° 0 mm 2 mps 668 mmHg 36%
    01:00 +16°C° 0 mm 2 mps 668 mmHg 37%
    02:00 +16°C° 0 mm 2 mps 668 mmHg 40%
    03:00 +15°C° 0 mm 2 mps 667 mmHg 43%
    04:00 +15°C° 0 mm 2 mps 667 mmHg 46%
    05:00 +15°C° 0 mm 2 mps 668 mmHg 48%
    06:00 +14°C° 0 mm 2 mps 669 mmHg 49%
    07:00 +14°C° 0 mm 1 mps 669 mmHg 51%
    08:00 +18°C° 0 mm 2 mps 670 mmHg 44%
    09:00 +21°C° 0 mm 2 mps 671 mmHg 37%
    10:00 +25°C° 0 mm 3 mps 671 mmHg 29%
    11:00 +27°C° 0 mm 2 mps 671 mmHg 27%
    12:00 +29°C° 0 mm 2 mps 671 mmHg 24%
    13:00 +31°C° 0 mm 2 mps 670 mmHg 22%
    14:00 +31°C° 0 mm 1 mps 670 mmHg 21%
    15:00 +31°C° 0 mm 1 mps 670 mmHg 21%
    16:00 +29°C° 0 mm 0 mps 669 mmHg 20%
    17:00 +28°C° 0 mm 1 mps 669 mmHg 24%
    18:00 +26°C° 0 mm 1 mps 668 mmHg 28%
    19:00 +23°C° 0 mm 1 mps 668 mmHg 32%
    20:00 +21°C° 0 mm 2 mps 668 mmHg 34%
    21:00 +20°C° 0 mm 2 mps 668 mmHg 35%
    22:00 +19°C° 0 mm 3 mps 669 mmHg 36%
    23:00 +19°C° 0 mm 3 mps 668 mmHg 37%

    Day after tomorrow, 29 May, Friday

    Time Temperature Precipitation Wind Pressure Humidity
    00:00 +18°C° 0 mm 3 mps 668 mmHg 38%
    01:00 +18°C° 0 mm 3 mps 668 mmHg 39%
    02:00 +17°C° 0 mm 3 mps 668 mmHg 39%
    03:00 +17°C° 0 mm 2 mps 668 mmHg 39%
    04:00 +16°C° 0 mm 2 mps 668 mmHg 39%
    05:00 +16°C° 0 mm 2 mps 668 mmHg 40%
    06:00 +16°C° 0 mm 1 mps 668 mmHg 41%
    07:00 +15°C° 0 mm 1 mps 669 mmHg 43%
    08:00 +19°C° 0 mm 1 mps 669 mmHg 37%
    09:00 +23°C° 0 mm 2 mps 670 mmHg 31%
    10:00 +26°C° 0 mm 2 mps 671 mmHg 25%
    11:00 +28°C° 0 mm 2 mps 671 mmHg 22%
    12:00 +30°C° 0 mm 2 mps 670 mmHg 20%
    13:00 +32°C° 0 mm 2 mps 670 mmHg 18%
    14:00 +32°C° 0 mm 2 mps 669 mmHg 18%
    15:00 +32°C° 0 mm 2 mps 669 mmHg 17%
    16:00 +32°C° 0 mm 1 mps 669 mmHg 17%
    17:00 +29°C° 0 mm 1 mps 668 mmHg 21%
    18:00 +26°C° 0 mm 1 mps 668 mmHg 25%
    19:00 +23°C° 0 mm 1 mps 668 mmHg 30%
    20:00 +22°C° 0 mm 1 mps 668 mmHg 31%
    21:00 +21°C° 0 mm 1 mps 668 mmHg 32%
    22:00 +20°C° 0 mm 1 mps 668 mmHg 33%
    23:00 +20°C° 0 mm 1 mps 668 mmHg 34%

    30 May, Saturday

    Time Temperature Precipitation Wind Pressure Humidity
    00:00 +18°C° 0 mm 2 mps 668 mmHg 34%
    01:00 +17°C° 0 mm 2 mps 667 mmHg 35%
    02:00 +16°C° 0 mm 2 mps 667 mmHg 36%
    03:00 +16°C° 0 mm 2 mps 667 mmHg 36%
    04:00 +15°C° 0 mm 2 mps 667 mmHg 37%
    05:00 +15°C° 0 mm 2 mps 668 mmHg 37%
    06:00 +14°C° 0 mm 2 mps 668 mmHg 38%
    07:00 +14°C° 0 mm 2 mps 668 mmHg 38%
    08:00 +18°C° 0 mm 2 mps 669 mmHg 31%
    09:00 +22°C° 0 mm 3 mps 670 mmHg 24%
    10:00 +27°C° 0 mm 4 mps 671 mmHg 17%
    11:00 +29°C° 0 mm 4 mps 671 mmHg 15%
    12:00 +31°C° 0 mm 3 mps 671 mmHg 13%
    13:00 +33°C° 0 mm 3 mps 671 mmHg 11%
    14:00 +33°C° 0 mm 3 mps 670 mmHg 11%
    15:00 +33°C° 0 mm 3 mps 670 mmHg 11%
    16:00 +33°C° 0 mm 3 mps 670 mmHg 11%
    17:00 +29°C° 0 mm 3 mps 669 mmHg 14%
    18:00 +26°C° 0 mm 2 mps 669 mmHg 16%
    19:00 +21°C° 0 mm 2 mps 669 mmHg 19%
    20:00 +20°C° 0 mm 2 mps 669 mmHg 20%
    21:00 +19°C° 0 mm 3 mps 669 mmHg 21%
    22:00 +18°C° 0 mm 3 mps 669 mmHg 22%
    23:00 +18°C° 0 mm 3 mps 669 mmHg 22%

    31 May, Sunday

    Time Temperature Precipitation Wind Pressure Humidity
    00:00 +17°C° 0 mm 3 mps 668 mmHg 23%
    01:00 +16°C° 0 mm 2 mps 668 mmHg 24%
    02:00 +14°C° 0 mm 3 mps 668 mmHg 25%
    03:00 +14°C° 0 mm 3 mps 668 mmHg 25%
    04:00 +13°C° 0 mm 3 mps 668 mmHg 26%
    05:00 +13°C° 0 mm 3 mps 668 mmHg 26%
    06:00 +12°C° 0 mm 3 mps 669 mmHg 27%
    07:00 +12°C° 0 mm 3 mps 669 mmHg 28%
    08:00 +17°C° 0 mm 3 mps 670 mmHg 24%
    09:00 +21°C° 0 mm 4 mps 671 mmHg 21%
    10:00 +26°C° 0 mm 4 mps 672 mmHg 18%
    11:00 +28°C° 0 mm 4 mps 672 mmHg 17%
    12:00 +30°C° 0 mm 4 mps 671 mmHg 16%
    13:00 +33°C° 0 mm 4 mps 671 mmHg 16%
    14:00 +33°C° 0 mm 4 mps 671 mmHg 16%
    15:00 +31°C° 0 mm 3 mps 670 mmHg 16%
    16:00 +31°C° 0 mm 3 mps 670 mmHg 17%
    17:00 +28°C° 0 mm 3 mps 670 mmHg 21%
    18:00 +25°C° 0 mm 2 mps 669 mmHg 24%
    19:00 +21°C° 0 mm 2 mps 669 mmHg 28%
    20:00 +20°C° 0 mm 2 mps 669 mmHg 30%
    21:00 +20°C° 0 mm 2 mps 669 mmHg 32%
    22:00 +19°C° 0 mm 2 mps 670 mmHg 33%
    23:00 +18°C° 0 mm 2 mps 669 mmHg 36%

    1 June, Monday

    Time Temperature Precipitation Wind Pressure Humidity
    00:00 +17°C° 0 mm 2 mps 669 mmHg 38%
    01:00 +17°C° 0 mm 2 mps 669 mmHg 40%
    02:00 +16°C° 0 mm 2 mps 669 mmHg 43%
    03:00 +15°C° 0 mm 2 mps 669 mmHg 46%
    04:00 +15°C° 0 mm 2 mps 669 mmHg 49%
    05:00 +15°C° 0 mm 2 mps 669 mmHg 50%
    06:00 +15°C° 0 mm 2 mps 670 mmHg 51%
    07:00 +15°C° 0 mm 2 mps 670 mmHg 53%
    08:00 +19°C° 0 mm 3 mps 671 mmHg 44%
    09:00 +23°C° 0 mm 4 mps 672 mmHg 35%
    10:00 +27°C° 0 mm 5 mps 672 mmHg 26%
    11:00 +29°C° 0 mm 5 mps 672 mmHg 24%
    12:00 +30°C° 0 mm 5 mps 671 mmHg 22%
    13:00 +33°C° 0 mm 4 mps 671 mmHg 20%
    14:00 +32°C° 0 mm 4 mps 670 mmHg 21%
    15:00 +32°C° 0 mm 4 mps 670 mmHg 21%
    16:00 +32°C° 0 mm 4 mps 669 mmHg 22%
    17:00 +28°C° 0 mm 3 mps 669 mmHg 27%
    18:00 +25°C° 0 mm 3 mps 669 mmHg 32%
    19:00 +23°C° 0 mm 2 mps 669 mmHg 37%
    20:00 +21°C° 0 mm 2 mps 669 mmHg 39%
    21:00 +20°C° 0 mm 2 mps 669 mmHg 41%
    22:00 +19°C° 0 mm 2 mps 669 mmHg 43%
    23:00 +18°C° 0 mm 2 mps 669 mmHg 46%
    Show more